Weather History for KCOQ - November, 2013

Change the Weather History Date:

Friday, November 8, 2013

  Actual Average Record
Temperature  
Mean Temperature 25 °F -  
Max Temperature 35 °F 38 °F 68 °F (1999)
Min Temperature 15 °F 25 °F -5 °F (2003)
Degree Days  
Heating Degree Days 40    
Moisture  
Dew Point 24 °F    
Average Humidity 87    
Maximum Humidity 100    
Minimum Humidity 75    
Precipitation  
Precipitation 0.01 in - - ()
Sea Level Pressure  
Sea Level Pressure 29.92 in    
Wind  
Wind Speed 3 mph (ESE)    
Max Wind Speed 14 mph    
Max Gust Speed 20 mph    
Visibility 9 miles    
Events Snow    
Averages and records for this station are not official NWS values.
T = Trace of Precipitation, MM = Missing Value Source: NWS Daily Summary

Daily Weather History Graph

Daily Weather History Graph

Search for Another Location

Airport or City:

Trip Planner

Search our weather history database for the weather conditions in past years. The results will help you decide how hot, cold, wet, or windy it might be!

Date:

Astronomy

Nov. 08, 2013 Rise Set
Actual Time 7:02 AM CST 4:44 PM CST
Civil Twilight 6:30 AM CST 5:16 PM CST
Nautical Twilight 5:54 AM CST 5:52 PM CST
Astronomical Twilight 5:18 AM CST 6:28 PM CST
Moon 11:58 AM CST (11/8) 10:06 PM CST (11/8)
Length of Visible Light 10h 46m
Length of Day
9h 41m
Waxing Crescent, 33% of the Moon is Illuminated
Nov 8
Waxing Crescent
Nov 9
First Quarter
Nov 17
Full
Nov 25
Last Quarter
Dec 2
New

Hourly Weather History & Observations

Time (CST) Temp. Windchill Dew Point Humidity Pressure Visibility Wind Dir Wind Speed Gust Speed Precip Events Conditions
12:16 AM 19.4 °F - 15.8 °F 86% 30.13 in 10.0 mi Calm Calm - N/A   Clear
12:35 AM 21.2 °F - 17.6 °F 86% 30.12 in 10.0 mi Calm Calm - N/A   Clear
12:56 AM 19.4 °F - 15.8 °F 86% 30.12 in 10.0 mi Calm Calm - N/A   Clear
1:16 AM 19.4 °F - 17.6 °F 93% 30.12 in 10.0 mi Calm Calm - N/A   Clear
1:35 AM 17.6 °F 12.3 °F 15.8 °F 93% 30.12 in 10.0 mi West 3.5 mph - N/A   Clear
1:56 AM 19.4 °F - 17.6 °F 93% 30.12 in 10.0 mi Calm Calm - N/A   Clear
2:16 AM 17.6 °F - 15.8 °F 93% 30.13 in 10.0 mi Calm Calm - N/A   Clear
2:35 AM 17.6 °F - 15.8 °F 93% 30.13 in 10.0 mi Calm Calm - N/A   Clear
2:56 AM 17.6 °F - 15.8 °F 93% 30.13 in 10.0 mi Calm Calm - N/A   Clear
3:16 AM 15.8 °F - 14.0 °F 93% 30.13 in 10.0 mi Calm Calm - N/A   Clear
3:36 AM 15.8 °F - 14.0 °F 93% 30.12 in 10.0 mi Calm Calm - N/A   Clear
3:56 AM 17.6 °F - 15.8 °F 93% 30.12 in 10.0 mi Calm Calm - N/A   Clear
4:16 AM 19.4 °F - 17.6 °F 93% 30.12 in 10.0 mi Calm Calm - N/A   Clear
4:35 AM 17.6 °F - 15.8 °F 93% 30.12 in 10.0 mi Calm Calm - N/A   Clear
4:56 AM 17.6 °F - 15.8 °F 93% 30.12 in 10.0 mi Calm Calm - N/A   Clear
5:16 AM 17.6 °F - 15.8 °F 93% 30.12 in 10.0 mi Calm Calm - N/A   Clear
5:35 AM 17.6 °F - 15.8 °F 93% 30.11 in 10.0 mi Calm Calm - N/A   Clear
5:56 AM 15.8 °F - 12.2 °F 86% 30.10 in 10.0 mi Calm Calm - N/A   Clear
6:16 AM 15.8 °F - 14.0 °F 93% 30.10 in 10.0 mi Calm Calm - N/A   Clear
6:35 AM 17.6 °F - 15.8 °F 93% 30.10 in 10.0 mi Calm Calm - N/A   Clear
6:56 AM 17.6 °F - 15.8 °F 93% 30.09 in 10.0 mi Calm Calm - N/A   Clear
7:16 AM 19.4 °F - 17.6 °F 93% 30.09 in 10.0 mi Calm Calm - N/A   Clear
7:35 AM 19.4 °F - 17.6 °F 93% 30.09 in 7.0 mi Calm Calm - N/A   Clear
7:56 AM 21.2 °F - 19.4 °F 93% 30.08 in 7.0 mi Calm Calm - N/A   Clear
8:16 AM 21.2 °F - 21.2 °F 100% 30.08 in 7.0 mi Calm Calm - N/A   Clear
8:35 AM 23.0 °F - 21.2 °F 93% 30.07 in 7.0 mi Calm Calm - N/A   Clear
8:56 AM 24.8 °F - 21.2 °F 86% 30.07 in 7.0 mi Calm Calm - N/A   Clear
9:15 AM 26.6 °F - 23.0 °F 86% 30.06 in 7.0 mi Calm Calm - N/A   Scattered Clouds
9:36 AM 26.6 °F 21.2 °F 24.8 °F 93% 30.06 in 7.0 mi SE 4.6 mph - N/A   Mostly Cloudy
9:56 AM 28.4 °F 24.6 °F 24.8 °F 86% 30.04 in 7.0 mi SE 3.5 mph - N/A   Scattered Clouds
10:16 AM 28.4 °F 23.3 °F 26.6 °F 93% 30.03 in 10.0 mi SSE 4.6 mph - N/A   Clear
10:36 AM 30.2 °F 26.7 °F 26.6 °F 86% 30.03 in 10.0 mi SE 3.5 mph - N/A   Scattered Clouds
10:56 AM 30.2 °F 25.4 °F 26.6 °F 86% 30.02 in 10.0 mi SE 4.6 mph - N/A   Clear
11:16 AM 32.0 °F 25.6 °F 26.6 °F 80% 30.00 in 10.0 mi ESE 6.9 mph - N/A   Clear
11:36 AM 32.0 °F 25.6 °F 26.6 °F 80% 29.99 in 10.0 mi ESE 6.9 mph - N/A   Mostly Cloudy
11:55 AM 32.0 °F 25.6 °F 26.6 °F 80% 29.97 in 10.0 mi ESE 6.9 mph - N/A   Overcast
12:16 PM 32.0 °F 27.5 °F 26.6 °F 80% 29.96 in 10.0 mi ESE 4.6 mph - N/A   Scattered Clouds
12:35 PM 32.0 °F 25.6 °F 26.6 °F 80% 29.96 in 10.0 mi ESE 6.9 mph - N/A   Mostly Cloudy
12:56 PM 33.8 °F 28.6 °F 26.6 °F 75% 29.94 in 10.0 mi ESE 5.8 mph - N/A   Mostly Cloudy
1:16 PM 33.8 °F 28.6 °F 26.6 °F 75% 29.93 in 10.0 mi ESE 5.8 mph - N/A   Mostly Cloudy
1:35 PM 33.8 °F 28.6 °F 26.6 °F 75% 29.92 in 10.0 mi ESE 5.8 mph - N/A   Overcast
1:56 PM 33.8 °F 30.8 °F 26.6 °F 75% 29.91 in 7.0 mi ESE 3.5 mph - N/A Snow Light Snow
2:16 PM 33.8 °F 27.7 °F 26.6 °F 75% 29.90 in 10.0 mi East 6.9 mph - N/A   Overcast
2:36 PM 33.8 °F 27.7 °F 28.4 °F 81% 29.88 in 0.5 mi ESE 6.9 mph 16.1 mph N/A Snow Light Snow
2:56 PM 32.0 °F 24.8 °F 30.2 °F 93% 29.86 in 0.8 mi ESE 8.1 mph - N/A Snow Light Snow
3:16 PM 32.0 °F 24.2 °F 30.2 °F 93% 29.84 in 2.0 mi ESE 9.2 mph - 0.01 in Snow Light Snow
3:35 PM 32.0 °F 24.8 °F 30.2 °F 93% 29.84 in 4.0 mi East 8.1 mph - 0.01 in   Overcast
3:56 PM 32.0 °F 23.6 °F 30.2 °F 93% 29.82 in 5.0 mi East 10.4 mph - N/A   Overcast
4:16 PM 32.0 °F 22.1 °F 30.2 °F 93% 29.77 in 5.0 mi East 13.8 mph - N/A   Overcast
4:35 PM 33.8 °F 25.8 °F 30.2 °F 87% 29.78 in 7.0 mi East 10.4 mph 17.3 mph N/A   Overcast
4:56 PM 33.8 °F 24.8 °F 30.2 °F 87% 29.76 in 7.0 mi East 12.7 mph 17.3 mph N/A   Overcast
5:16 PM 33.8 °F 27.0 °F 30.2 °F 87% 29.76 in 7.0 mi ESE 8.1 mph 19.6 mph N/A   Overcast
5:35 PM 33.8 °F 25.3 °F 30.2 °F 87% 29.75 in 7.0 mi East 11.5 mph - N/A   Overcast
5:56 PM 33.8 °F 26.4 °F 30.2 °F 87% 29.75 in 10.0 mi East 9.2 mph - N/A   Overcast
6:16 PM 33.8 °F 27.0 °F 30.2 °F 87% 29.74 in 10.0 mi East 8.1 mph - N/A   Overcast
6:36 PM 33.8 °F 24.8 °F 30.2 °F 87% 29.72 in 10.0 mi East 12.7 mph 16.1 mph N/A   Overcast
6:56 PM 33.8 °F 26.4 °F 28.4 °F 81% 29.71 in 10.0 mi East 9.2 mph - N/A   Overcast
7:16 PM 33.8 °F 25.3 °F 28.4 °F 81% 29.69 in 10.0 mi East 11.5 mph 16.1 mph N/A   Overcast
7:36 PM 33.8 °F 25.8 °F 28.4 °F 81% 29.68 in 10.0 mi East 10.4 mph - N/A   Overcast
7:56 PM 33.8 °F 25.8 °F 28.4 °F 81% 29.67 in 10.0 mi East 10.4 mph - N/A   Overcast
8:15 PM 33.8 °F 25.8 °F 28.4 °F 81% 29.66 in 10.0 mi East 10.4 mph - N/A   Overcast
8:36 PM 35.6 °F 28.0 °F 28.4 °F 75% 29.65 in 10.0 mi East 10.4 mph - N/A Snow Light Snow
8:56 PM 35.6 °F 29.2 °F 28.4 °F 75% 29.64 in 10.0 mi East 8.1 mph - N/A   Overcast
9:15 PM 35.6 °F 28.0 °F 28.4 °F 75% 29.63 in 10.0 mi East 10.4 mph 16.1 mph N/A   Overcast
9:36 PM 35.6 °F 28.6 °F 28.4 °F 75% 29.62 in 10.0 mi East 9.2 mph - N/A   Overcast
9:56 PM 35.6 °F 29.2 °F 28.4 °F 75% 29.61 in 10.0 mi ESE 8.1 mph - N/A   Overcast
10:15 PM 35.6 °F 28.6 °F 30.2 °F 81% 29.60 in 10.0 mi ESE 9.2 mph 16.1 mph N/A   Overcast
10:36 PM 33.8 °F 27.0 °F 30.2 °F 87% 29.60 in 10.0 mi East 8.1 mph - N/A   Overcast
10:56 PM 33.8 °F 27.7 °F 30.2 °F 87% 29.59 in 7.0 mi East 6.9 mph - N/A   Overcast
11:16 PM 33.8 °F 28.6 °F 32.0 °F 93% 29.58 in 7.0 mi East 5.8 mph - N/A   Overcast
11:36 PM 33.8 °F - 32.0 °F 93% 29.58 in 5.0 mi Calm Calm - N/A Snow Light Snow
11:56 PM 33.8 °F 29.6 °F 32.0 °F 93% 29.57 in 4.0 mi East 4.6 mph - N/A Snow Light Snow